Location: Gazon
(48.1318°N, 1.2708°W)
Time: 01:54:35
(UTC+00:00)

USA 186 - Pass Details

Date: 18 September 2020
Orbit: 261 x 425 km, 96.9° (Epoch: 12 October)

Event Time Altitude Azimuth Distance (km) Brightness Sun altitude
Exits shadow 20:20:54 12° 218° (SW) 1,322 4.3 -21.6°
Maximum altitude 20:23:01 22° 267° (W) 952 4.1 -21.9°
Drops below altitude 10° 20:25:36 10° 320° (NW) 1,502 5.5 -22.3°
Sets 20:27:57 0° 336° (NNW) 2,391 6.4 -22.7°
